Regional Weather Roundup
Issued by NWS Binghamton, NY

Home | Current Version | Previous Version | Text Only | Print | Product List | Glossary On
Versions: 1 2 3 4 5 6 7 8 9 10 11 12 13 14 15 16 17 18 19 20 21 22 23 24 25 26 27 28 29 30 31 32 33 34 35 36 37 38 39 40 41 42 43 44 45 46 47 48 49 50
716
ASUS41 KBGM 211710
RWRBGM

REGIONAL WEATHER ROUNDUP
NATIONAL WEATHER SERVICE BINGHAMTON NY
1200 PM EST TUE FEB 21 2017

Note: "fair" indicates few or no clouds below 12,000 feet with no
significant weather and/or obstructions to visibility.

* = Station(s) that does not report precipitation, such as rain,
snow, etc, also no thunder or fog.

NYZ009-015>018-022>025-036-037-044>046-055>057-062-211800
...Central New York...

CITY           SKY/WX    TMP DP  RH WIND       PRES   REMARKS
Binghamton     CLOUDY    37  14  38 S13G18    30.14F WCI  29
Cortland       FAIR      39  19  45 S9G21     30.13F WCI  33
Dansville      CLOUDY    51  22  31 SE15G21   30.04F
Elmira         PTSUNNY   46  18  32 SW13      30.13F
Seneca Falls   SUNNY     45  21  39 S16G24    30.08F
Ithaca         MOSUNNY   42  17  36 SE16G26   30.12F
Hamilton       SUNNY     37  12  35 S13G21    30.13F WCI  29
Monticello     CLOUDY    39  18  41 S8        30.25F WCI  34
Norwich        SUNNY     37  14  38 S10G18    30.17F WCI  30
Oneonta        SUNNY     39  10  30 S7        30.14F WCI  34
Penn Yan       PTSUNNY   46  20  35 S18G24    30.06F
Rome           MOSUNNY   37  19  48 SE12      30.19F WCI  29
Sidney         SUNNY     37  12  35 SW9       30.20F WCI  31
Syracuse       CLOUDY    44  18  35 SE13      30.11F
$$

PAZ038>040-043-044-047-048-072-211800
...Northeast Pennsylvania...

CITY           SKY/WX    TMP DP  RH WIND       PRES   REMARKS
Hazleton       CLOUDY    41  18  38 SE7       30.26F
Scranton       CLOUDY    44  17  33 S8        30.23F
$$
&&
KEY
WCI = Wind Chill Index
VSB = Visibility
HX  = Heat Index
$$




USA.gov is the U.S. government's official web portal to all federal, state and local government web resources and services.